Location: Squamish
(49.7000°N, 123.1500°W)
Time: 00:07:06
(UTC-07:00)

Daily predictions for brighter satellites

Satellite Brightness Start Highest point End
(mag) Time Altitude Azimuth Time Altitude Azimuth Time Altitude Azimuth
Cosmos 1869 3.3 00:01:51 10° N 00:05:49 74° ENE 00:07:41 30° SSE
Cosmos 2263 Rocket 2.1 00:02:09 15° SSW 00:06:49 80° ESE 00:12:26 10° NNE
Cosmos 841 Rocket 4.4 00:02:03 10° NW 00:06:53 38° WSW 00:10:09 19° SSW
CZ-4B R/B 4.2 00:06:50 10° E 00:08:04 12° ENE 00:09:19 10° NE
Sich 1 3.3 00:07:15 27° SSE 00:09:14 51° E 00:13:24 10° NNE
CZ-4C R/B 3.4 00:08:02 20° SE 00:09:36 22° ESE 00:14:00 10° ENE
CZ-4C R/B 4.1 00:07:59 23° SSW 00:10:21 51° W 00:14:39 10° NNW
Cosmos 1707 Rocket 3.6 00:06:57 10° N 00:11:27 87° W 00:13:50 28° S
ATLAS 5 CENTAUR R/B 3.8 00:13:54 10° W 00:18:21 33° NNW 00:23:16 10° NE
Cosmos 1400 Rocket 4.2 00:17:13 22° SE 00:18:41 28° E 00:22:14 10° NNE
Cosmos 1455 3.2 00:17:22 10° NNW 00:20:59 38° W 00:22:56 22° SSW
Cosmos 1464 Rocket 4.1 00:19:25 10° NNW 00:25:32 68° W 00:29:33 23° S
Cosmos 304 Rocket 4.5 00:21:35 10° NW 00:26:07 43° WSW 00:28:31 24° SSW
Cosmos 2058 4.5 00:24:25 11° SW 00:27:57 31° WNW 00:31:45 10° N
Cosmos 1666 Rocket 3.5 00:28:56 28° S 00:31:15 86° E 00:35:44 10° N
Cosmos 1862 Rocket 3.9 00:30:43 10° N 00:35:01 54° ENE 00:37:10 27° SE
SOZ 4.3 00:36:40 10° WSW 00:39:37 75° NNW 00:41:43 10° ENE
Cosmos 1933 Rocket 4.2 00:39:00 28° SE 00:40:47 42° E 00:44:56 10° NNE
Cosmos 1844 Rocket 3.4 00:39:31 25° SSE 00:41:55 37° ESE 00:47:02 10° NE
Cosmos 1805 Rocket 4.2 00:40:18 21° SW 00:42:58 50° WNW 00:47:13 10° N
Cosmos 1503 Rocket 4.4 00:40:18 15° SW 00:44:31 61° WNW 00:49:40 10° NNE
CZ-4C R/B 3.8 00:45:09 27° ESE 00:46:24 39° ENE 00:49:30 10° N
Lacrosse 5 4.0 00:45:15 10° W 00:46:58 12° WSW 00:47:59 11° SW
Cosmos 1633 Rocket 3.1 00:47:57 29° SSW 00:50:08 74° W 00:54:31 10° N
Cosmos 1892 4.1 00:51:23 22° ESE 00:52:42 28° E 00:56:05 10° NNE
In-Cosmos 22 Rocket 4.5 00:50:35 27° SSE 00:53:26 54° E 00:58:53 10° NNE
CZ-2C R/B 3.6 00:50:10 25° S 00:53:30 59° W 00:59:08 10° NNW
USA 234 4.0 00:50:16 10° ENE 00:56:37 55° NNW 01:02:58 10° W
Tsikada Rocket 4.0 00:53:02 25° S 00:57:03 90° W 01:03:26 10° N
SL-27 R/B 4.0 00:54:30 10° N 00:57:30 29° ENE 00:59:18 18° ESE
SAR-Lupe-2 4.5 00:56:39 25° ESE 00:58:15 41° ENE 01:01:40 10° N
Cosmos 2242 Rocket 3.9 00:55:39 10° NNW 01:00:10 59° W 01:02:16 30° SSW
Cosmos 1703 Rocket 4.3 01:01:50 10° N 01:06:11 46° ENE 01:08:37 23° SE
SeaSat 1 4.3 01:08:32 10° E 01:12:39 27° NE 01:16:47 10° NNW
CZ-2C R/B 3.0 01:10:09 10° N 01:15:26 60° WNW 01:18:52 21° SW
Cosmos 968 Rocket 3.5 01:13:50 26° SSW 01:16:51 88° WNW 01:22:10 10° NNE
Cosmos 1470 Rocket 3.6 01:16:12 31° SSW 01:18:16 74° WNW 01:22:44 10° N
H-2A R/B 4.1 01:14:26 10° NE 01:18:20 27° E 01:20:19 20° SE
Cosmos 2084 Rocket 3.7 01:20:13 10° NW 01:23:50 41° SW 01:24:32 37° SSW
Cosmos 1933 4.1 01:22:31 10° NNW 01:26:24 41° W 01:27:55 29° SW
Meteor 1-26 Rocket 4.2 01:20:58 10° NNW 01:26:31 74° W 01:29:32 28° S
Cosmos 2278 Rocket 3.0 01:27:04 24° SSE 01:29:45 37° ESE 01:34:55 10° NE
Cosmos 1538 Rocket 4.4 01:26:11 10° NNW 01:31:23 51° WSW 01:33:57 28° SSW
Okean 1-7 3.4 01:28:27 10° N 01:32:43 57° ENE 01:35:02 26° SSE
Cosmos 1869 Rocket 4.2 01:31:28 26° SSE 01:33:26 44° E 01:37:35 10° NNE
Cosmos 1689 Rocket 2.1 01:32:44 48° SSE 01:33:30 85° ENE 01:36:40 10° NNW
Cosmos 1833 Rocket 3.8 01:28:22 10° NNW 01:33:46 42° NE 01:39:07 10° ESE
Cosmos 1844 3.7 01:31:38 27° SSW 01:34:44 70° ESE 01:40:20 10° NNE
SL-24 R/B - RUBIN 2 4.4 01:29:55 10° NW 01:35:14 45° WSW 01:37:18 29° S
CZ-3B DEB 4.3 01:25:25 10° WNW 01:38:11 81° NNE 01:50:45 10° ESE
ALOS 2 4.2 01:37:50 18° SW 01:39:33 22° W 01:43:01 10° NW
Cosmos 923 Rocket 3.9 01:34:52 10° NNW 01:40:06 86° WSW 01:43:14 25° SSE
CZ-4B R/B 1.5 01:39:08 42° S 01:40:11 72° W 01:43:45 10° NNW
COSMOS 2406 3.9 01:35:25 10° NW 01:40:36 37° WSW 01:43:06 25° SSW
Cosmos 1461 4.1 01:39:59 22° SE 01:40:47 24° ESE 01:44:01 10° ENE
Meteor 2-10 Rocket 4.5 01:41:46 10° NNW 01:46:35 36° W 01:49:20 22° SW
Cosmos 1315 Rocket 3.0 01:46:12 32° SW 01:47:50 63° WNW 01:51:45 10° N
Cosmos 2279 Rocket 4.0 01:43:11 10° N 01:49:29 85° W 01:53:29 24° S
Landsat 5 3.6 01:49:32 32° S 01:51:21 60° WSW 01:55:28 10° NNW
Cosmos 2263 Rocket 4.2 01:46:54 10° W 01:51:25 24° NW 01:55:57 10° NNE
Meteor 1-10 Rocket 4.4 01:46:09 10° N 01:51:55 74° ENE 01:56:01 20° SSE
Cosmos 1400 Rocket 4.2 01:52:51 18° WSW 01:55:08 31° WNW 01:58:52 10° N
SL-16 R/B 4.4 01:51:18 10° ESE 01:56:21 27° NE 02:01:25 10° N
Cosmos 192 4.3 01:52:16 10° NNW 01:57:15 88° ENE 02:00:31 22° SSE
CZ-4C R/B 2.3 01:53:11 18° SW 01:57:19 78° NW 02:03:36 10° NE
Cosmos 1825 3.1 01:56:02 25° SE 01:57:43 39° E 02:01:18 10° NNE
PSLV R/B 4.3 01:53:39 10° NNE 01:57:52 45° E 02:00:09 24° SSE
Cosmos 2082 Rocket 2.6 01:53:21 10° NNW 01:58:57 64° ENE 02:04:32 10° SE
Abrixas 2.9 02:00:17 39° ESE 02:00:17 39° ESE 02:02:20 10° E
Cosmos 1782 2.8 01:59:20 10° N 02:03:25 90° W 02:05:22 30° S
Meteor 2-3 Rocket 3.9 02:01:29 24° SSW 02:05:04 68° WNW 02:10:52 10° N
Cosmos 1408 2.9 02:08:32 30° SSE 02:10:01 56° E 02:13:36 10° NNE
Cosmos 2112 Rocket 4.0 02:05:00 10° NNW 02:10:16 74° WSW 02:13:43 22° S
Exosat Rocket 4.2 02:09:04 10° NNW 02:14:19 68° ENE 02:21:04 10° SE
BREEZE-M DEB (TANK) 4.1 02:02:02 10° W 02:15:14 64° SSW 02:19:21 10° ESE
Cosmos 1346 Rocket 3.6 02:15:39 10° NNW 02:19:14 36° W 02:20:37 27° SW
Meteor 2-6 Rocket 4.2 02:14:15 10° NNW 02:19:46 77° W 02:23:31 22° S
ATLAS 3B R/B 4.0 02:15:40 16° SSE 02:20:24 30° ESE 02:26:28 10° NE
Meteor 1-27 Rocket 4.0 02:14:54 10° N 02:20:52 77° ENE 02:25:43 16° SSE
Helios 1A Rocket 3.7 02:17:26 10° NNE 02:21:24 43° E 02:23:43 22° SSE
Cosmos 44 Rocket 4.2 02:19:53 22° SSE 02:22:13 34° ESE 02:26:31 10° NE
Cosmos 1777 Rocket 4.5 02:19:16 20° SW 02:22:50 53° WNW 02:27:58 10° NNE
Cosmos 1680 Rocket 3.8 02:17:56 10° NNW 02:23:03 51° WSW 02:26:01 24° S
Cosmos 1674 Rocket 4.3 02:19:54 10° N 02:24:15 50° ENE 02:27:55 14° SSE
PSLV R/B 4.2 02:21:52 19° SSE 02:24:46 69° ENE 02:28:57 10° N
Cosmos 1844 Rocket 3.6 02:21:08 13° WSW 02:25:45 43° NW 02:31:07 10° NNE
Cosmos 1892 4.2 02:26:26 18° WSW 02:28:26 27° WNW 02:31:50 10° N
Timation 1 Rocket 4.4 02:26:12 23° SSW 02:30:07 78° ESE 02:36:07 10° NNE
Cosmos 2221 Rocket 4.5 02:27:55 10° NNW 02:32:00 36° W 02:34:03 23° SW
Timation 2 Rocket 4.1 02:26:14 10° NNW 02:32:18 75° ENE 02:38:30 10° SE
SL-27 R/B 3.9 02:30:00 10° NW 02:32:34 21° W 02:32:57 20° WSW
Aureole 1 Rocket 4.5 02:28:03 10° NNW 02:34:28 61° WSW 02:40:58 16° S
Resurs 1-4 Rocket 4.0 02:31:48 10° NE 02:35:54 22° E 02:39:57 10° SE
USA 234 4.3 02:32:51 10° ENE 02:39:04 48° N 02:45:18 10° WNW
Cosmos 1606 3.6 02:40:55 10° NNW 02:44:29 35° W 02:46:08 24° SW
Cosmos 1378 Rocket 4.4 02:41:42 10° N 02:45:53 46° ENE 02:50:03 10° SSE
Cosmos 1898 Rocket 3.7 02:43:27 20° S 02:46:57 62° ESE 02:52:10 10° NNE
SeaSat 1 2.5 02:45:36 14° SSE 02:49:52 64° WSW 02:54:48 10° NW
Cosmos 1340 2.6 02:46:41 10° NNW 02:50:28 75° W 02:52:51 22° S
Cosmos 1092 Rocket 4.1 02:46:12 18° S 02:51:04 83° E 02:57:21 10° N
CZ-2D R/B 3.7 02:47:09 10° NE 02:51:48 29° E 02:56:27 10° SSE
H-2A R/B 3.5 02:49:43 10° N 02:53:58 40° WNW 02:56:56 17° SW
ARIANE 5 R/B 4.1 02:51:57 10° NE 02:56:10 26° E 03:00:22 10° SSE
Cosmos 1607 4.1 02:52:16 19° SSW 02:56:44 69° SE 03:03:01 10° NE
Genesis I 3.4 02:55:59 20° SW 02:58:34 70° NW 03:02:31 10° NE
BREEZE-M DEB 1.9 02:56:52 10° W 03:00:54 85° S 03:03:01 10° E
SL-08 R/B 3.3 02:57:18 13° SSE 03:01:42 86° WSW 03:06:31 10° NNW
Cosmos 2026 Rocket 4.3 02:58:14 13° S 03:03:37 64° E 03:09:37 10° NNE
CBERS-1 4.3 02:58:45 10° NNE 03:03:53 64° ESE 03:08:06 15° S
COSMOS 2487 3.0 03:05:44 10° NW 03:09:06 42° WSW 03:11:07 21° SSW
USA 238 DEB 4.4 03:06:09 14° S 03:11:40 44° ESE 03:18:14 10° NE
USA 238 4.5 03:06:15 14° S 03:11:47 43° ESE 03:18:20 10° NE
Cosmos 2278 Rocket 3.0 03:08:54 13° WSW 03:13:46 44° NW 03:19:12 10° NNE
Cosmos 1437 3.8 03:11:35 10° N 03:14:44 44° ENE 03:17:51 10° SSE
IRS-P3 4.1 03:09:46 10° NNE 03:15:10 90° E 03:19:36 15° SSW
Cosmos 858 Rocket 4.5 03:11:43 18° SSW 03:15:42 90° WNW 03:20:56 10° NNE
GP-B 3.1 03:11:20 10° N 03:15:48 77° W 03:19:22 16° S
Cosmos 1833 Rocket 3.3 03:12:28 10° NW 03:17:41 39° WSW 03:22:10 13° S
NPP 3.7 03:12:20 10° NNE 03:17:46 88° ESE 03:22:20 15° SSW
Cosmos 1461 3.5 03:16:25 13° WSW 03:19:41 46° NW 03:23:36 10° NNE
BREEZE-M R/B 3.6 03:14:14 10° WNW 03:22:38 72° SSW 03:26:34 10° ESE
Cosmos 2369 Rocket 3.9 03:19:38 10° SSE 03:24:05 25° ESE 03:28:37 10° NE
Cosmos 1812 3.1 03:20:14 10° N 03:24:05 64° ENE 03:27:55 10° SSE
UNK 3.8 03:21:54 10° SSE 03:26:36 89° ENE 03:31:19 10° NNW
Cosmos 1975 Rocket 3.3 03:23:06 10° N 03:27:26 69° ENE 03:31:46 10° SSE
Cosmos 1655 Rocket 4.1 03:25:44 10° S 03:31:56 81° E 03:38:13 10° N
CZ-3B DEB 4.1 03:19:41 10° WNW 03:32:30 62° SW 03:43:43 10° SSE
Cosmos 2298 Rocket 4.1 03:28:36 15° SSW 03:33:02 72° WNW 03:38:22 10° NNE
Cosmos 1825 4.1 03:30:55 11° WSW 03:33:30 19° WNW 03:36:19 10° NNW
Cosmos 2297 4.0 03:28:48 14° SW 03:33:41 62° WNW 03:39:20 10° NNE
Abrixas 2.1 03:31:37 10° W 03:34:21 65° S 03:37:04 10° ESE
USA 161 4.4 03:34:02 10° E 03:35:26 14° ENE 03:36:53 10° NNE
Cosmos 1733 Rocket 3.9 03:33:13 14° SW 03:36:30 36° WNW 03:40:34 10° N
SL-16 R/B 2.6 03:33:15 10° S 03:39:28 71° WSW 03:45:45 10° NNW
Cosmos 2082 Rocket 3.3 03:38:09 10° NW 03:42:36 24° WSW 03:46:32 12° SSW
USA 267 4.4 03:38:36 10° ENE 03:44:22 32° SE 03:50:05 10° SSW
Cosmos 158 Rocket 4.2 03:39:13 10° NNW 03:44:24 75° ENE 03:49:25 10° SSE
Cosmos 2150 Rocket 4.3 03:40:03 13° SW 03:44:54 66° WNW 03:50:21 10° NNE
CZ-4C R/B 4.1 03:41:47 10° W 03:46:51 30° NNW 03:52:35 10° NE
Meteor 1-25 Rocket 4.4 03:44:22 10° S 03:49:56 72° E 03:55:35 10° NNE
ADEOS Rocket 3.6 03:43:47 10° NNE 03:51:32 77° WNW 03:58:45 10° SSW
Meteor 1-14 Rocket 4.4 03:45:39 10° SSW 03:51:36 87° W 03:57:39 10° NNE
NOSS 3-2 (A) 4.5 03:46:39 10° S 03:52:12 39° ESE 03:58:15 10° NE
Cosmos 44 3.5 03:48:50 11° SW 03:53:14 59° NW 03:57:38 10° NE
Okean 3 4.4 03:53:12 10° NNW 03:57:00 32° W 04:00:43 10° SSW
Sich 1 Rocket 4.0 03:53:42 11° SSW 03:57:57 52° WNW 04:02:27 10° N
AQUA 4.4 03:56:05 10° N 04:00:38 46° WNW 04:05:10 10° SW
Cosmos 44 Rocket 4.0 03:59:01 10° WSW 04:03:40 45° NW 04:08:15 10° NNE
ADEOS 3.6 03:58:33 10° NNE 04:03:49 89° ESE 04:09:03 10° SSW
MOZ.5/SAFIR/RUBIN 5/SL-8 3.8 03:59:29 10° SSE 04:04:15 89° WSW 04:09:02 10° NNW
Cosmos 1048 Rocket 4.1 03:59:42 10° NNW 04:05:06 76° WSW 04:10:28 10° SSE
Okean 1 3.3 04:02:40 10° NNW 04:06:46 77° W 04:10:49 10° S
S3M 4.1 04:00:48 10° NNW 04:06:54 59° W 04:12:53 10° S
Cosmos 2266 Rocket 4.4 04:00:41 10° S 04:07:02 70° E 04:13:24 10° NNE
Cosmos 1633 3.2 04:04:32 10° S 04:08:07 56° E 04:11:42 10° NNE
ATLAS 3B R/B 3.0 04:03:10 10° SW 04:10:37 78° NW 04:17:45 10° NE
GRACE-1 4.4 04:11:30 10° SSE 04:14:09 58° E 04:16:50 10° N
GRACE-2 4.4 04:11:56 10° SSE 04:14:35 58° E 04:17:16 10° N
Cosmos 1937 Rocket 4.4 04:10:39 10° SW 04:15:28 38° WNW 04:20:17 10° NNE
Resurs 1-4 Rocket 2.3 04:10:54 10° N 04:16:11 63° WNW 04:21:25 10° SSW
Geosat 4.3 04:11:58 10° NNE 04:16:57 63° NW 04:21:55 10° SW
MOS 1 Rocket 3.7 04:14:13 10° NNE 04:19:41 85° ESE 04:24:55 10° SSW
USA 234 3.6 04:15:09 10° ESE 04:21:40 73° NNE 04:28:12 10° WNW
Meteor 2-4 Rocket 4.4 04:17:33 10° N 04:23:13 60° ENE 04:28:40 10° SSE
Cosmos 2344 4.1 04:16:57 10° SSW 04:24:27 63° ESE 04:33:08 10° NE
Okean 2 Rocket 3.3 04:21:05 10° SSW 04:25:26 59° WNW 04:29:49 10° N
Cosmos 1441 Rocket 3.3 04:21:42 10° NNW 04:25:43 86° W 04:29:43 10° S
Cosmos 2251 Rocket 4.5 04:21:13 10° NNW 04:26:27 54° ENE 04:31:36 10° SE
